Year,Month,Day,Hour,Minute,Value (Times are PST for temperature in C)
2015,12,18,00,00,4.30
2015,12,18,00,01,4.30
2015,12,18,00,02,4.30
2015,12,18,00,03,4.30
2015,12,18,00,04,4.30
2015,12,18,00,05,4.30
2015,12,18,00,06,4.30
2015,12,18,00,07,4.30
2015,12,18,00,08,4.30
2015,12,18,00,09,4.30
2015,12,18,00,10,4.30
2015,12,18,00,11,4.30
2015,12,18,00,12,4.30
2015,12,18,00,13,4.30
2015,12,18,00,14,4.30
2015,12,18,00,15,4.20
2015,12,18,00,16,4.30
2015,12,18,00,17,4.30
2015,12,18,00,18,4.20
2015,12,18,00,19,4.20
2015,12,18,00,20,4.20
2015,12,18,00,21,4.20
2015,12,18,00,22,4.20
2015,12,18,00,23,4.20
2015,12,18,00,24,4.20
2015,12,18,00,25,4.10
2015,12,18,00,26,4.10
2015,12,18,00,27,4.10
2015,12,18,00,28,4.10
2015,12,18,00,29,4.10
2015,12,18,00,30,4.10
2015,12,18,00,31,4.10
2015,12,18,00,32,4.10
2015,12,18,00,33,4.10
2015,12,18,00,34,4.10
2015,12,18,00,35,4.10
2015,12,18,00,36,4.10
2015,12,18,00,37,4.10
2015,12,18,00,38,4.10
2015,12,18,00,39,4.10
2015,12,18,00,40,4.10
2015,12,18,00,41,4.10
2015,12,18,00,42,4.10
2015,12,18,00,43,4.10
2015,12,18,00,44,4.10
2015,12,18,00,45,4.10
2015,12,18,00,46,4.10
2015,12,18,00,47,4.10
2015,12,18,00,48,4.10
2015,12,18,00,49,4.00
2015,12,18,00,50,4.10
2015,12,18,00,51,4.00
2015,12,18,00,52,4.00
2015,12,18,00,53,4.00
2015,12,18,00,54,4.00
2015,12,18,00,55,4.00
2015,12,18,00,56,4.00
2015,12,18,00,57,4.00
2015,12,18,00,58,4.00
2015,12,18,00,59,4.00
2015,12,18,01,00,4.00
2015,12,18,01,01,3.90
2015,12,18,01,02,3.90
2015,12,18,01,03,3.90
2015,12,18,01,04,3.90
2015,12,18,01,05,3.90
2015,12,18,01,06,3.90
2015,12,18,01,07,3.90
2015,12,18,01,08,3.90
2015,12,18,01,09,3.90
2015,12,18,01,10,3.90
2015,12,18,01,11,3.90
2015,12,18,01,12,3.90
2015,12,18,01,13,3.90
2015,12,18,01,14,3.90
2015,12,18,01,15,3.90
2015,12,18,01,16,3.90
2015,12,18,01,17,3.90
2015,12,18,01,18,3.90
2015,12,18,01,19,3.90
2015,12,18,01,20,3.90
2015,12,18,01,21,3.90
2015,12,18,01,22,3.90
2015,12,18,01,23,3.90
2015,12,18,01,24,3.90
2015,12,18,01,25,3.90
2015,12,18,01,26,3.90
2015,12,18,01,27,3.90
2015,12,18,01,28,3.90
2015,12,18,01,29,3.90
2015,12,18,01,30,3.90
2015,12,18,01,31,4.00
2015,12,18,01,32,3.90
2015,12,18,01,33,3.90
2015,12,18,01,34,4.00
2015,12,18,01,35,4.00
2015,12,18,01,36,4.00
2015,12,18,01,37,4.00
2015,12,18,01,38,4.00
2015,12,18,01,39,4.00
2015,12,18,01,40,4.00
2015,12,18,01,41,4.00
2015,12,18,01,42,4.00
2015,12,18,01,43,4.00
2015,12,18,01,44,4.00
2015,12,18,01,45,4.00
2015,12,18,01,46,4.00
2015,12,18,01,47,4.00
2015,12,18,01,48,4.00
2015,12,18,01,49,4.10
2015,12,18,01,50,4.10
2015,12,18,01,51,4.10
2015,12,18,01,52,4.10
2015,12,18,01,53,4.20
2015,12,18,01,54,4.20
2015,12,18,01,55,4.20
2015,12,18,01,56,4.20
2015,12,18,01,57,4.20
2015,12,18,01,58,4.30
2015,12,18,01,59,4.30
2015,12,18,02,00,4.30
2015,12,18,02,01,4.20
2015,12,18,02,02,4.30
2015,12,18,02,03,4.20
2015,12,18,02,04,4.20
2015,12,18,02,05,4.20
2015,12,18,02,06,4.20
2015,12,18,02,07,4.20
2015,12,18,02,08,4.20
2015,12,18,02,09,4.20
2015,12,18,02,10,4.20
2015,12,18,02,11,4.10
2015,12,18,02,12,4.10
2015,12,18,02,13,4.10
2015,12,18,02,14,4.10
2015,12,18,02,15,4.10
2015,12,18,02,16,4.10
2015,12,18,02,17,4.00
2015,12,18,02,18,4.00
2015,12,18,02,19,4.00
2015,12,18,02,20,4.00
2015,12,18,02,21,4.00
2015,12,18,02,22,4.00
2015,12,18,02,23,4.00
2015,12,18,02,24,4.00
2015,12,18,02,25,4.00
2015,12,18,02,26,4.00
2015,12,18,02,27,4.00
2015,12,18,02,28,4.00
2015,12,18,02,29,4.00
2015,12,18,02,30,4.00
2015,12,18,02,31,4.00
2015,12,18,02,32,4.00
2015,12,18,02,33,4.00
2015,12,18,02,34,4.00
2015,12,18,02,35,4.10
2015,12,18,02,36,4.10
2015,12,18,02,37,4.10
2015,12,18,02,38,4.10
2015,12,18,02,39,4.10
2015,12,18,02,40,4.20
2015,12,18,02,41,4.20
2015,12,18,02,42,4.10
2015,12,18,02,43,4.10
2015,12,18,02,44,4.10
2015,12,18,02,45,4.10
2015,12,18,02,46,4.10
2015,12,18,02,47,4.10
2015,12,18,02,48,4.10
2015,12,18,02,49,4.20
2015,12,18,02,50,4.20
2015,12,18,02,51,4.20
2015,12,18,02,52,4.20
2015,12,18,02,53,4.20
2015,12,18,02,54,4.20
2015,12,18,02,55,4.20
2015,12,18,02,56,4.20
2015,12,18,02,57,4.20
2015,12,18,02,58,4.20
2015,12,18,02,59,4.20
2015,12,18,03,00,4.20
2015,12,18,03,01,4.20
2015,12,18,03,02,4.20
2015,12,18,03,03,4.20
2015,12,18,03,04,4.20
2015,12,18,03,05,4.20
2015,12,18,03,06,4.20
2015,12,18,03,07,4.20
2015,12,18,03,08,4.20
2015,12,18,03,09,4.20
2015,12,18,03,10,4.20
2015,12,18,03,11,4.20
2015,12,18,03,12,4.20
2015,12,18,03,13,4.20
2015,12,18,03,14,4.20
2015,12,18,03,15,4.20
2015,12,18,03,16,4.20
2015,12,18,03,17,4.20
2015,12,18,03,18,4.30
2015,12,18,03,19,4.30
2015,12,18,03,20,4.30
2015,12,18,03,21,4.40
2015,12,18,03,22,4.40
2015,12,18,03,23,4.50
2015,12,18,03,24,4.60
2015,12,18,03,25,4.70
2015,12,18,03,26,4.80
2015,12,18,03,27,4.80
2015,12,18,03,28,4.90
2015,12,18,03,29,5.00
2015,12,18,03,30,5.00
2015,12,18,03,31,5.10
2015,12,18,03,32,5.10
2015,12,18,03,33,5.20
2015,12,18,03,34,5.20
2015,12,18,03,35,5.30
2015,12,18,03,36,5.40
2015,12,18,03,37,5.50
2015,12,18,03,38,5.60
2015,12,18,03,39,5.70
2015,12,18,03,40,5.70
2015,12,18,03,41,5.70
2015,12,18,03,42,5.80
2015,12,18,03,43,5.80
2015,12,18,03,44,5.80
2015,12,18,03,45,5.80
2015,12,18,03,46,5.80
2015,12,18,03,47,5.80
2015,12,18,03,48,5.80
2015,12,18,03,49,5.90
2015,12,18,03,50,5.90
2015,12,18,03,51,5.90
2015,12,18,03,52,5.90
2015,12,18,03,53,5.90
2015,12,18,03,54,5.90
2015,12,18,03,55,5.90
2015,12,18,03,56,5.80
2015,12,18,03,57,5.80
2015,12,18,03,58,5.80
2015,12,18,03,59,5.80
2015,12,18,04,00,5.80
2015,12,18,04,01,5.80
2015,12,18,04,02,5.80
2015,12,18,04,03,5.80
2015,12,18,04,04,5.80
2015,12,18,04,05,5.80
2015,12,18,04,06,5.80
2015,12,18,04,07,5.80
2015,12,18,04,08,5.90
2015,12,18,04,09,5.90
2015,12,18,04,10,5.90
2015,12,18,04,11,5.90
2015,12,18,04,12,5.90
2015,12,18,04,13,5.90
2015,12,18,04,14,6.00
2015,12,18,04,15,6.10
2015,12,18,04,16,6.20
2015,12,18,04,17,6.20
2015,12,18,04,18,6.20
2015,12,18,04,19,6.20
2015,12,18,04,20,6.30
2015,12,18,04,21,6.30
2015,12,18,04,22,6.30
2015,12,18,04,23,6.30
2015,12,18,04,24,6.40
2015,12,18,04,25,6.40
2015,12,18,04,26,6.60
2015,12,18,04,27,6.70
2015,12,18,04,28,6.70
2015,12,18,04,29,6.80
2015,12,18,04,30,6.90
2015,12,18,04,31,6.90
2015,12,18,04,32,6.90
2015,12,18,04,33,6.90
2015,12,18,04,34,6.90
2015,12,18,04,35,7.00
2015,12,18,04,36,7.00
2015,12,18,04,37,6.90
2015,12,18,04,38,6.90
2015,12,18,04,39,6.90
2015,12,18,04,40,6.90
2015,12,18,04,41,6.80
2015,12,18,04,42,6.80
2015,12,18,04,43,6.80
2015,12,18,04,44,6.80
2015,12,18,04,45,6.80
2015,12,18,04,46,6.80
2015,12,18,04,47,6.80
2015,12,18,04,48,6.80
2015,12,18,04,49,6.80
2015,12,18,04,50,6.80
2015,12,18,04,51,6.70
2015,12,18,04,52,6.70
2015,12,18,04,53,6.70
2015,12,18,04,54,6.70
2015,12,18,04,55,6.70
2015,12,18,04,56,6.70
2015,12,18,04,57,6.70
2015,12,18,04,58,6.60
2015,12,18,04,59,6.70
2015,12,18,05,00,6.70
2015,12,18,05,01,6.70
2015,12,18,05,02,6.60
2015,12,18,05,03,6.60
2015,12,18,05,04,6.60
2015,12,18,05,05,6.60
2015,12,18,05,06,6.60
2015,12,18,05,07,6.60
2015,12,18,05,08,6.60
2015,12,18,05,09,6.60
2015,12,18,05,10,6.50
2015,12,18,05,11,6.50
2015,12,18,05,12,6.40
2015,12,18,05,13,6.40
2015,12,18,05,14,6.40
2015,12,18,05,15,6.30
2015,12,18,05,16,6.30
2015,12,18,05,17,6.30
2015,12,18,05,18,6.30
2015,12,18,05,19,6.30
2015,12,18,05,20,6.30
2015,12,18,05,21,6.40
2015,12,18,05,22,6.40
2015,12,18,05,23,6.40
2015,12,18,05,24,6.50
2015,12,18,05,25,6.50
2015,12,18,05,26,6.50
2015,12,18,05,27,6.50
2015,12,18,05,28,6.60
2015,12,18,05,29,6.60
2015,12,18,05,30,6.60
2015,12,18,05,31,6.50
2015,12,18,05,32,6.50
2015,12,18,05,33,6.50
2015,12,18,05,34,6.50
2015,12,18,05,35,6.40
2015,12,18,05,36,6.40
2015,12,18,05,37,6.40
2015,12,18,05,38,6.40
2015,12,18,05,39,6.40
2015,12,18,05,40,6.40
2015,12,18,05,41,6.40
2015,12,18,05,42,6.40
2015,12,18,05,43,6.40
2015,12,18,05,44,6.40
2015,12,18,05,45,6.40
2015,12,18,05,46,6.40
2015,12,18,05,47,6.40
2015,12,18,05,48,6.40
2015,12,18,05,49,6.40
2015,12,18,05,50,6.40
2015,12,18,05,51,6.30
2015,12,18,05,52,6.30
2015,12,18,05,53,6.30
2015,12,18,05,54,6.30
2015,12,18,05,55,6.30
2015,12,18,05,56,6.30
2015,12,18,05,57,6.30
2015,12,18,05,58,6.40
2015,12,18,05,59,6.40
2015,12,18,06,00,6.50
2015,12,18,06,01,6.50
2015,12,18,06,02,6.50
2015,12,18,06,03,6.60
2015,12,18,06,04,6.60
2015,12,18,06,05,6.60
2015,12,18,06,06,6.60
2015,12,18,06,07,6.70
2015,12,18,06,08,6.70
2015,12,18,06,09,6.70
2015,12,18,06,10,6.70
2015,12,18,06,11,6.70
2015,12,18,06,12,6.60
2015,12,18,06,13,6.60
2015,12,18,06,14,6.60
2015,12,18,06,15,6.60
2015,12,18,06,16,6.70
2015,12,18,06,17,6.70
2015,12,18,06,18,6.70
2015,12,18,06,19,6.80
2015,12,18,06,20,6.70
2015,12,18,06,21,6.80
2015,12,18,06,22,6.80
2015,12,18,06,23,6.80
2015,12,18,06,24,6.80
2015,12,18,06,25,6.80
2015,12,18,06,26,6.90
2015,12,18,06,27,6.90
2015,12,18,06,28,6.90
2015,12,18,06,29,7.00
2015,12,18,06,30,7.00
2015,12,18,06,31,7.00
2015,12,18,06,32,7.00
2015,12,18,06,33,7.00
2015,12,18,06,34,7.00
2015,12,18,06,35,7.00
2015,12,18,06,36,6.90
2015,12,18,06,37,6.90
2015,12,18,06,38,6.90
2015,12,18,06,39,6.90
2015,12,18,06,40,6.80
2015,12,18,06,41,6.80
2015,12,18,06,42,6.80
2015,12,18,06,43,6.80
2015,12,18,06,44,6.80
2015,12,18,06,45,6.80
2015,12,18,06,46,6.90
2015,12,18,06,47,6.90
2015,12,18,06,48,6.90
2015,12,18,06,49,6.90
2015,12,18,06,50,6.90
2015,12,18,06,51,6.90
2015,12,18,06,52,6.90
2015,12,18,06,53,6.90
2015,12,18,06,54,6.90
2015,12,18,06,55,6.90
2015,12,18,06,56,6.90
2015,12,18,06,57,6.90
2015,12,18,06,58,6.90
2015,12,18,06,59,7.00
2015,12,18,07,00,7.00
2015,12,18,07,01,7.00
2015,12,18,07,02,7.00
2015,12,18,07,03,7.00
2015,12,18,07,04,7.00
2015,12,18,07,05,7.00
2015,12,18,07,06,6.90
2015,12,18,07,07,6.90
2015,12,18,07,08,6.90
2015,12,18,07,09,6.90
2015,12,18,07,10,6.90
2015,12,18,07,11,6.90
2015,12,18,07,12,6.90
2015,12,18,07,13,7.00
2015,12,18,07,14,7.00
2015,12,18,07,15,7.00
2015,12,18,07,16,7.00
2015,12,18,07,17,7.10
2015,12,18,07,18,7.10
2015,12,18,07,19,7.10
2015,12,18,07,20,7.10
2015,12,18,07,21,7.10
2015,12,18,07,22,7.10
2015,12,18,07,23,7.10
2015,12,18,07,24,7.10
2015,12,18,07,25,7.10
2015,12,18,07,26,7.20
2015,12,18,07,27,7.20
2015,12,18,07,28,7.10
2015,12,18,07,29,7.10
2015,12,18,07,30,7.10
2015,12,18,07,31,7.10
2015,12,18,07,32,7.10
2015,12,18,07,33,7.10
2015,12,18,07,34,7.10
2015,12,18,07,35,7.20
2015,12,18,07,36,7.20
2015,12,18,07,37,7.20
2015,12,18,07,38,7.20
2015,12,18,07,39,7.10
2015,12,18,07,40,7.10
2015,12,18,07,41,7.10
2015,12,18,07,42,7.10
2015,12,18,07,43,7.10
2015,12,18,07,44,7.10
2015,12,18,07,45,7.10
2015,12,18,07,46,7.20
2015,12,18,07,47,7.20
2015,12,18,07,48,7.20
2015,12,18,07,49,7.10
2015,12,18,07,50,7.20
2015,12,18,07,51,7.20
2015,12,18,07,52,7.20
2015,12,18,07,53,7.20
2015,12,18,07,54,7.20
2015,12,18,07,55,7.20
2015,12,18,07,56,7.20
2015,12,18,07,57,7.20
2015,12,18,07,58,7.30
2015,12,18,07,59,7.30
2015,12,18,08,00,7.30
2015,12,18,08,01,7.30
2015,12,18,08,02,7.30
2015,12,18,08,03,7.30
2015,12,18,08,04,7.30
2015,12,18,08,05,7.30
2015,12,18,08,06,7.30
2015,12,18,08,07,7.30
2015,12,18,08,08,7.30
2015,12,18,08,09,7.30
2015,12,18,08,10,7.20
2015,12,18,08,11,7.30
2015,12,18,08,12,7.30
2015,12,18,08,13,7.30
2015,12,18,08,14,7.30
2015,12,18,08,15,7.30
2015,12,18,08,16,7.30
2015,12,18,08,17,7.30
2015,12,18,08,18,7.40
2015,12,18,08,19,7.40
2015,12,18,08,20,7.40
2015,12,18,08,21,7.40
2015,12,18,08,22,7.40
2015,12,18,08,23,7.40
2015,12,18,08,24,7.40
2015,12,18,08,25,7.30
2015,12,18,08,26,7.30
2015,12,18,08,27,7.30
2015,12,18,08,28,7.30
2015,12,18,08,29,7.30
2015,12,18,08,30,7.30
2015,12,18,08,31,7.30
2015,12,18,08,32,7.20
2015,12,18,08,33,7.20
2015,12,18,08,34,7.20
2015,12,18,08,35,7.20
2015,12,18,08,36,7.20
2015,12,18,08,37,7.20
2015,12,18,08,38,7.20
2015,12,18,08,39,7.20
2015,12,18,08,40,7.10
2015,12,18,08,41,7.10
2015,12,18,08,42,7.10
2015,12,18,08,43,7.10
2015,12,18,08,44,7.10
2015,12,18,08,45,7.10
2015,12,18,08,46,7.10
2015,12,18,08,47,7.10
2015,12,18,08,48,7.10
2015,12,18,08,49,7.10
2015,12,18,08,50,7.10
2015,12,18,08,51,7.10
2015,12,18,08,52,7.10
2015,12,18,08,53,7.10
2015,12,18,08,54,7.10
2015,12,18,08,55,7.10
2015,12,18,08,56,7.10
2015,12,18,08,57,7.10
2015,12,18,08,58,7.10
2015,12,18,08,59,7.10
2015,12,18,09,00,7.20
2015,12,18,09,01,7.20
2015,12,18,09,02,7.30
2015,12,18,09,03,7.30
2015,12,18,09,04,7.30
2015,12,18,09,05,7.40
2015,12,18,09,06,7.40
2015,12,18,09,07,7.40
2015,12,18,09,08,7.40
2015,12,18,09,09,7.40
2015,12,18,09,10,7.40
2015,12,18,09,11,7.40
2015,12,18,09,12,7.40
2015,12,18,09,13,7.40
2015,12,18,09,14,7.50
2015,12,18,09,15,7.40
2015,12,18,09,16,7.40
2015,12,18,09,17,7.40
2015,12,18,09,18,7.50
2015,12,18,09,19,7.50
2015,12,18,09,20,7.50
2015,12,18,09,21,7.60
2015,12,18,09,22,7.60
2015,12,18,09,23,7.60
2015,12,18,09,24,7.60
2015,12,18,09,25,7.60
2015,12,18,09,26,7.60
2015,12,18,09,27,7.60
2015,12,18,09,28,7.60
2015,12,18,09,29,7.60
2015,12,18,09,30,7.60
2015,12,18,09,31,7.60
2015,12,18,09,32,7.60
2015,12,18,09,33,7.60
2015,12,18,09,34,7.60
2015,12,18,09,35,7.70
2015,12,18,09,36,7.70
2015,12,18,09,37,7.70
2015,12,18,09,38,7.70
2015,12,18,09,39,7.60
2015,12,18,09,40,7.70
2015,12,18,09,41,7.70
2015,12,18,09,42,7.70
2015,12,18,09,43,7.70
2015,12,18,09,44,7.70
2015,12,18,09,45,7.70
2015,12,18,09,46,7.70
2015,12,18,09,47,7.70
2015,12,18,09,48,7.70
2015,12,18,09,49,7.80
2015,12,18,09,50,7.80
2015,12,18,09,51,7.80
2015,12,18,09,52,7.80
2015,12,18,09,53,7.80
2015,12,18,09,54,7.80
2015,12,18,09,55,7.80
2015,12,18,09,56,7.80
2015,12,18,09,57,7.80
2015,12,18,09,58,7.80
2015,12,18,09,59,7.80
2015,12,18,10,00,7.80
2015,12,18,10,01,7.80
2015,12,18,10,02,7.90
2015,12,18,10,03,7.90
2015,12,18,10,04,7.90
2015,12,18,10,05,7.90
2015,12,18,10,06,8.00
2015,12,18,10,07,8.00
2015,12,18,10,08,8.00
2015,12,18,10,09,7.90
2015,12,18,10,10,8.00
2015,12,18,10,11,7.90
2015,12,18,10,12,7.90
2015,12,18,10,13,7.90
2015,12,18,10,14,7.90
2015,12,18,10,15,7.90
2015,12,18,10,16,7.90
2015,12,18,10,17,7.90
2015,12,18,10,18,7.90
2015,12,18,10,19,7.90
2015,12,18,10,20,7.90
2015,12,18,10,21,7.90
2015,12,18,10,22,7.90
2015,12,18,10,23,7.90
2015,12,18,10,24,7.90
2015,12,18,10,25,7.90
2015,12,18,10,26,7.90
2015,12,18,10,27,7.90
2015,12,18,10,28,7.80
2015,12,18,10,29,7.80
2015,12,18,10,30,7.80
2015,12,18,10,31,7.80
2015,12,18,10,32,7.80
2015,12,18,10,33,7.80
2015,12,18,10,34,7.80
2015,12,18,10,35,7.80
2015,12,18,10,36,7.80
2015,12,18,10,37,7.80
2015,12,18,10,38,7.80
2015,12,18,10,39,7.80
2015,12,18,10,40,7.80
2015,12,18,10,41,7.80
2015,12,18,10,42,7.80
2015,12,18,10,43,7.90
2015,12,18,10,44,7.90
2015,12,18,10,45,7.90
2015,12,18,10,46,7.90
2015,12,18,10,47,8.00
2015,12,18,10,48,8.00
2015,12,18,10,49,8.00
2015,12,18,10,50,8.00
2015,12,18,10,51,8.00
2015,12,18,10,52,8.00
2015,12,18,10,53,8.00
2015,12,18,10,54,8.00
2015,12,18,10,55,8.00
2015,12,18,10,56,8.00
2015,12,18,10,57,7.90
2015,12,18,10,58,7.90
2015,12,18,10,59,7.90
2015,12,18,11,00,7.90
2015,12,18,11,01,7.90
2015,12,18,11,02,7.90
2015,12,18,11,03,7.80
2015,12,18,11,04,7.80
2015,12,18,11,05,7.80
2015,12,18,11,06,7.80
2015,12,18,11,07,7.70
2015,12,18,11,08,7.70
2015,12,18,11,09,7.70
2015,12,18,11,10,7.70
2015,12,18,11,11,7.70
2015,12,18,11,12,7.70
2015,12,18,11,13,7.70
2015,12,18,11,14,7.70
2015,12,18,11,15,7.70
2015,12,18,11,16,7.70
2015,12,18,11,17,7.70
2015,12,18,11,18,7.70
2015,12,18,11,19,7.70
2015,12,18,11,20,7.70
2015,12,18,11,21,7.70
2015,12,18,11,22,7.60
2015,12,18,11,23,7.60
2015,12,18,11,24,7.60
2015,12,18,11,25,7.60
2015,12,18,11,26,7.60
2015,12,18,11,27,7.60
2015,12,18,11,28,7.60
2015,12,18,11,29,7.60
2015,12,18,11,30,7.60
2015,12,18,11,31,7.60
2015,12,18,11,32,7.60
2015,12,18,11,33,7.60
2015,12,18,11,34,7.60
2015,12,18,11,35,7.60
2015,12,18,11,36,7.60
2015,12,18,11,37,7.60
2015,12,18,11,38,7.60
2015,12,18,11,39,7.60
2015,12,18,11,40,7.60
2015,12,18,11,41,7.50
2015,12,18,11,42,7.50
2015,12,18,11,43,7.50
2015,12,18,11,44,7.50
2015,12,18,11,45,7.50
2015,12,18,11,46,7.50
2015,12,18,11,47,7.50
2015,12,18,11,48,7.60
2015,12,18,11,49,7.60
2015,12,18,11,50,7.60
2015,12,18,11,51,7.60
2015,12,18,11,52,7.50
2015,12,18,11,53,7.50
2015,12,18,11,54,7.50
2015,12,18,11,55,7.40
2015,12,18,11,56,7.40
2015,12,18,11,57,7.40
2015,12,18,11,58,7.40
2015,12,18,11,59,7.40
2015,12,18,12,00,7.30
2015,12,18,12,01,7.30
2015,12,18,12,02,7.30
2015,12,18,12,03,7.30
2015,12,18,12,04,7.30
2015,12,18,12,05,7.30
2015,12,18,12,06,7.30
2015,12,18,12,07,7.30
2015,12,18,12,08,7.30
2015,12,18,12,09,7.30
2015,12,18,12,10,7.30
2015,12,18,12,11,7.30
2015,12,18,12,12,7.30
2015,12,18,12,13,7.30
2015,12,18,12,14,7.40
2015,12,18,12,15,7.40
2015,12,18,12,16,7.40
2015,12,18,12,17,7.50
2015,12,18,12,18,7.50
2015,12,18,12,19,7.50
2015,12,18,12,20,7.50
2015,12,18,12,21,7.40
2015,12,18,12,22,7.40
2015,12,18,12,23,7.40
2015,12,18,12,24,7.40
2015,12,18,12,25,7.40
2015,12,18,12,26,7.30
2015,12,18,12,27,7.30
2015,12,18,12,28,7.30
2015,12,18,12,29,7.30
2015,12,18,12,30,7.30
2015,12,18,12,31,7.30
2015,12,18,12,32,7.40
2015,12,18,12,33,7.40
2015,12,18,12,34,7.40
2015,12,18,12,35,7.50
2015,12,18,12,36,7.50
2015,12,18,12,37,7.50
2015,12,18,12,38,7.60
2015,12,18,12,39,7.60
2015,12,18,12,40,7.60
2015,12,18,12,41,7.70
2015,12,18,12,42,7.70
2015,12,18,12,43,7.80
2015,12,18,12,44,7.90
2015,12,18,12,45,7.90
2015,12,18,12,46,8.00
2015,12,18,12,47,8.00
2015,12,18,12,48,8.00
2015,12,18,12,49,8.00
2015,12,18,12,50,8.10
2015,12,18,12,51,8.10
2015,12,18,12,52,8.10
2015,12,18,12,53,8.10
2015,12,18,12,54,8.10
2015,12,18,12,55,8.10
2015,12,18,12,56,8.10
2015,12,18,12,57,8.10
2015,12,18,12,58,8.20
2015,12,18,12,59,8.20
2015,12,18,13,00,8.20
2015,12,18,13,01,8.20
2015,12,18,13,02,8.20
2015,12,18,13,03,8.30
2015,12,18,13,04,8.20
2015,12,18,13,05,8.30
2015,12,18,13,06,8.40
2015,12,18,13,07,8.40
2015,12,18,13,08,8.50
2015,12,18,13,09,8.60
2015,12,18,13,10,8.70
2015,12,18,13,11,8.70
2015,12,18,13,12,8.80
2015,12,18,13,13,8.80
2015,12,18,13,14,8.90
2015,12,18,13,15,8.90
2015,12,18,13,16,9.00
2015,12,18,13,17,9.10
2015,12,18,13,18,9.20
2015,12,18,13,19,9.20
2015,12,18,13,20,9.20
2015,12,18,13,21,9.20
2015,12,18,13,22,9.20
2015,12,18,13,23,9.10
2015,12,18,13,24,9.10
2015,12,18,13,25,9.20
2015,12,18,13,26,9.20
2015,12,18,13,27,9.10
2015,12,18,13,28,9.10
2015,12,18,13,29,9.10
2015,12,18,13,30,9.00
2015,12,18,13,31,8.90
2015,12,18,13,32,8.90
2015,12,18,13,33,8.80
2015,12,18,13,34,8.80
2015,12,18,13,35,8.70
2015,12,18,13,36,8.70
2015,12,18,13,37,8.60
2015,12,18,13,38,8.50
2015,12,18,13,39,8.50
2015,12,18,13,40,8.40
2015,12,18,13,41,8.40
2015,12,18,13,42,8.20
2015,12,18,13,43,8.10
2015,12,18,13,44,8.00
2015,12,18,13,45,7.80
2015,12,18,13,46,7.70
2015,12,18,13,47,7.50
2015,12,18,13,48,7.30
2015,12,18,13,49,7.20
2015,12,18,13,50,7.00
2015,12,18,13,51,6.90
2015,12,18,13,52,6.80
2015,12,18,13,53,6.70
2015,12,18,13,54,6.60
2015,12,18,13,55,6.40
2015,12,18,13,56,6.30
2015,12,18,13,57,6.20
2015,12,18,13,58,6.10
2015,12,18,13,59,6.00
2015,12,18,14,00,6.00
2015,12,18,14,01,6.00
2015,12,18,14,02,5.90
2015,12,18,14,03,5.90
2015,12,18,14,04,5.90
2015,12,18,14,05,5.90
2015,12,18,14,06,5.90
2015,12,18,14,07,5.80
2015,12,18,14,08,5.80
2015,12,18,14,09,5.80
2015,12,18,14,10,5.80
2015,12,18,14,11,5.80
2015,12,18,14,12,5.80
2015,12,18,14,13,5.70
2015,12,18,14,14,5.70
2015,12,18,14,15,5.70
2015,12,18,14,16,5.70
2015,12,18,14,17,5.70
2015,12,18,14,18,5.70
2015,12,18,14,19,5.60
2015,12,18,14,20,5.60
2015,12,18,14,21,5.60
2015,12,18,14,22,5.50
2015,12,18,14,23,5.50
2015,12,18,14,24,5.50
2015,12,18,14,25,5.50
2015,12,18,14,26,5.50
2015,12,18,14,27,5.50
2015,12,18,14,28,5.50
2015,12,18,14,29,5.50
2015,12,18,14,30,5.40
2015,12,18,14,31,5.40
2015,12,18,14,32,5.40
2015,12,18,14,33,5.40
2015,12,18,14,34,5.40
2015,12,18,14,35,5.30
2015,12,18,14,36,5.30
2015,12,18,14,37,5.30
2015,12,18,14,38,5.30
2015,12,18,14,39,5.30
2015,12,18,14,40,5.30
2015,12,18,14,41,5.30
2015,12,18,14,42,5.30
2015,12,18,14,43,5.40
2015,12,18,14,44,5.40
2015,12,18,14,45,5.40
2015,12,18,14,46,5.40
2015,12,18,14,47,5.40
2015,12,18,14,48,5.40
2015,12,18,14,49,5.40
2015,12,18,14,50,5.40
2015,12,18,14,51,5.40
2015,12,18,14,52,5.50
2015,12,18,14,53,5.50
2015,12,18,14,54,5.50
2015,12,18,14,55,5.50
2015,12,18,14,56,5.50
2015,12,18,14,57,5.50
2015,12,18,14,58,5.50
2015,12,18,14,59,5.50
2015,12,18,15,00,5.50
2015,12,18,15,01,5.50
2015,12,18,15,02,5.50
2015,12,18,15,03,5.50
2015,12,18,15,04,5.50
2015,12,18,15,05,5.40
2015,12,18,15,06,5.40
2015,12,18,15,07,5.40
2015,12,18,15,08,5.40
2015,12,18,15,09,5.40
2015,12,18,15,10,5.40
2015,12,18,15,11,5.40
2015,12,18,15,12,5.30
2015,12,18,15,13,5.30
2015,12,18,15,14,5.30
2015,12,18,15,15,5.30
2015,12,18,15,16,5.30
2015,12,18,15,17,5.40
2015,12,18,15,18,5.40
2015,12,18,15,19,5.40
2015,12,18,15,20,5.40
2015,12,18,15,21,5.30
2015,12,18,15,22,5.30
2015,12,18,15,23,5.30
2015,12,18,15,24,5.30
2015,12,18,15,25,5.30
2015,12,18,15,26,5.20
2015,12,18,15,27,5.20
2015,12,18,15,28,5.20
2015,12,18,15,29,5.10
2015,12,18,15,30,5.10
2015,12,18,15,31,5.10
2015,12,18,15,32,5.00
2015,12,18,15,33,5.00
2015,12,18,15,34,5.00
2015,12,18,15,35,5.00
2015,12,18,15,36,5.00
2015,12,18,15,37,5.00
2015,12,18,15,38,5.00
2015,12,18,15,39,4.90
2015,12,18,15,40,4.90
2015,12,18,15,41,4.90
2015,12,18,15,42,4.90
2015,12,18,15,43,4.90
2015,12,18,15,44,4.90
2015,12,18,15,45,4.90
2015,12,18,15,46,4.90
2015,12,18,15,47,4.90
2015,12,18,15,48,4.90
2015,12,18,15,49,4.90
2015,12,18,15,50,4.90
2015,12,18,15,51,4.90
2015,12,18,15,52,4.80
2015,12,18,15,53,4.80
2015,12,18,15,54,4.80
2015,12,18,15,55,4.80
2015,12,18,15,56,4.80
2015,12,18,15,57,4.80
2015,12,18,15,58,4.80
2015,12,18,15,59,4.80
2015,12,18,16,00,4.70
2015,12,18,16,01,4.70
2015,12,18,16,02,4.70
2015,12,18,16,03,4.70
2015,12,18,16,04,4.70
2015,12,18,16,05,4.70
2015,12,18,16,06,4.70
2015,12,18,16,07,4.70
2015,12,18,16,08,4.70
2015,12,18,16,09,4.70
2015,12,18,16,10,4.70
2015,12,18,16,11,4.60
2015,12,18,16,12,4.60
2015,12,18,16,13,4.60
2015,12,18,16,14,4.50
2015,12,18,16,15,4.50
2015,12,18,16,16,4.50
2015,12,18,16,17,4.50
2015,12,18,16,18,4.40
2015,12,18,16,19,4.40
2015,12,18,16,20,4.40
2015,12,18,16,21,4.40
2015,12,18,16,22,4.40
2015,12,18,16,23,4.40
2015,12,18,16,24,4.40
2015,12,18,16,25,4.40
2015,12,18,16,26,4.40
2015,12,18,16,27,4.40
2015,12,18,16,28,4.40
2015,12,18,16,29,4.40
2015,12,18,16,30,4.40
2015,12,18,16,31,4.40
2015,12,18,16,32,4.40
2015,12,18,16,33,4.40
2015,12,18,16,34,4.40
2015,12,18,16,35,4.30
2015,12,18,16,36,4.30
2015,12,18,16,37,4.30
2015,12,18,16,38,4.30
2015,12,18,16,39,4.30
2015,12,18,16,40,4.30
2015,12,18,16,41,4.30
2015,12,18,16,42,4.20
2015,12,18,16,43,4.10
2015,12,18,16,44,4.10
2015,12,18,16,45,4.00
2015,12,18,16,46,4.00
2015,12,18,16,47,3.90
2015,12,18,16,48,3.90
2015,12,18,16,49,3.90
2015,12,18,16,50,3.90
2015,12,18,16,51,3.80
2015,12,18,16,52,3.80
2015,12,18,16,53,3.80
2015,12,18,16,54,3.80
2015,12,18,16,55,3.80
2015,12,18,16,56,3.80
2015,12,18,16,57,3.80
2015,12,18,16,58,3.70
2015,12,18,16,59,3.70
2015,12,18,17,00,3.70
2015,12,18,17,01,3.60
2015,12,18,17,02,3.60
2015,12,18,17,03,3.60
2015,12,18,17,04,3.60
2015,12,18,17,05,3.60
2015,12,18,17,06,3.50
2015,12,18,17,07,3.50
2015,12,18,17,08,3.50
2015,12,18,17,09,3.50
2015,12,18,17,10,3.50
2015,12,18,17,11,3.50
2015,12,18,17,12,3.50
2015,12,18,17,13,3.50
2015,12,18,17,14,3.50
2015,12,18,17,15,3.50
2015,12,18,17,16,3.50
2015,12,18,17,17,3.40
2015,12,18,17,18,3.40
2015,12,18,17,19,3.40
2015,12,18,17,20,3.30
2015,12,18,17,21,3.30
2015,12,18,17,22,3.30
2015,12,18,17,23,3.30
2015,12,18,17,24,3.20
2015,12,18,17,25,3.20
2015,12,18,17,26,3.20
2015,12,18,17,27,3.20
2015,12,18,17,28,3.20
2015,12,18,17,29,3.20
2015,12,18,17,30,3.20
2015,12,18,17,31,3.20
2015,12,18,17,32,3.20
2015,12,18,17,33,3.20
2015,12,18,17,34,3.10
2015,12,18,17,35,3.10
2015,12,18,17,36,3.10
2015,12,18,17,37,3.10
2015,12,18,17,38,3.10
2015,12,18,17,39,3.00
2015,12,18,17,40,3.00
2015,12,18,17,41,2.90
2015,12,18,17,42,2.90
2015,12,18,17,43,2.90
2015,12,18,17,44,2.90
2015,12,18,17,45,2.80
2015,12,18,17,46,2.80
2015,12,18,17,47,2.80
2015,12,18,17,48,2.80
2015,12,18,17,49,2.80
2015,12,18,17,50,2.70
2015,12,18,17,51,2.70
2015,12,18,17,52,2.70
2015,12,18,17,53,2.60
2015,12,18,17,54,2.60
2015,12,18,17,55,2.60
2015,12,18,17,56,2.60
2015,12,18,17,57,2.60
2015,12,18,17,58,2.60
2015,12,18,17,59,2.60
2015,12,18,18,00,2.60
2015,12,18,18,01,2.60
2015,12,18,18,02,2.60
2015,12,18,18,03,2.60
2015,12,18,18,04,2.70
2015,12,18,18,05,2.70
2015,12,18,18,06,2.70